Showing default

PACE-1, 48909

Orbit data source: Space-Track

PACE-1, 48909 is a payload satellite owned by ARC (US) in SSO that was launched on Wed, 30 Jun 2021 UTC via an FALCON 9 launch vehicle from the Air Force Eastern Test Range (AFETR). Payload-class satellites include a variety of spacecraft equipped with specific instruments for various scientific and technological missions. These include communications satellites like Starlink; space stations such as the ISS; scientific satellites like the Hubble; Earth observation satellites from companies like Planet Labs, Umbra, and HawkEye 360; GPS; miniature CubeSats for education and research; and military/defense satellites.

Loading next visibility...
Identifier
48909, 2021-059AG
Orbit
SSO
Country
Flag of USUS
Related business
Manufacturer
ARC
Mission
Operational Civil Technology
Bus & Motor
CUBESAT 6U, Unknown motor
Mass
10 kg wet, 10 kg dry
Launch date (UTC)
2021-06-30 (4 years ago)
Launch vehicle
FALCON 9
Launch site
Air Force Eastern Test Range (AFETR)
Object type
Payload
Rocket body
Debris
Shape & HBR
Box, 0.1 m
Radar Cross Section
0.080 m², Small (<0.1 m²)

Expand to show TLE details & history
Last TLE update: 20 hours ago

TLE from 20 hours ago
0 PACE-1
1 48909U 21059AG  25261.25265473  .00024869  00000-0  43731-3 0  9997
2 48909  97.6848  70.6820 0003943 226.7223 133.3699 15.50474051235310
Epoch: 2025-09-18T06:03Z
TLE epoch observation values (Epoch: 2025-09-18T06:03:49.368Z)
Latitude
-0.00006°
Longitude
-17.69061°
Altitude
420.305 km
Speed
7.658 km/s
True Right ascension
04h 42m 43s
True Declination
0° 00' 00"
Sunlit
Object was in daylight at epoch
Visualization orbit readout
Latitude
Unknown
Longitude
Unknown
Altitude
Unknown
Speed
Unknown
Apparent Right ascension
Unknown
Apparent Declination
Unknown
Sunlit
N/A
Visualization observer readout
Local Sidereal Time
19:17:49
Azimuth
Unknown
Elevation
Unknown
Doppler factor
Unknown
Orbital elements
Apogee altitude
414.956 km
Perigee altitude
409.601 km
Semi-major axis
6,790.416 km
Eccentricity
0.00039
Inclination
97.6848°
RAAN
70.682°
Arg. of periapsis
226.7223°
True anomaly
133.40273°
Mean anomaly
133.3699°
Eccentric anomaly
133.38632°
Mean motion
3.87881 °/min
Orbital period
92.81 mins
BSTAR
0.00043731
Loading maneuver chart data...
Computing Atmospheric mass density...
Loading historical data...
Loading historical data...
Loading historical data...
Loading historical data...
Loading historical data...
Loading historical data...
Loading historical data...

Documentation

Showing up to 5 results
|